This is the latest recevied weather packets stored in our database for station/object KC9DRE. If no packets are shown the sender has not sent any weather packets the latest 10 day(s).
| Time | Temp. | Humidity | Pressure | Rain* | Wind** | Luminosity | Snow |
|---|---|---|---|---|---|---|---|
| 1777635218 | 8.89° C | 71% | 1013.7 hPa | 0 mm | - | 39 W/m² | - |
| 1777634915 | 8.89° C | 71% | 1013.5 hPa | 0 mm | - | 33 W/m² | - |
| 1777634612 | 8.89° C | 67% | 1012.9 hPa | 0 mm | - | 33 W/m² | - |
| 1777634310 | 8.89° C | 68% | 1012.9 hPa | 0 mm | - | 29 W/m² | - |
| 1777634006 | 8.33° C | 69% | 1012.9 hPa | 0 mm | - | 18 W/m² | - |
| 1777633702 | 8.89° C | 69% | 1013 hPa | 0 mm | - | 15 W/m² | - |
| 1777633401 | 8.89° C | 69% | 1012.9 hPa | 0 mm | - | 12 W/m² | - |
| 1777633098 | 8.89° C | 69% | 1013 hPa | 0 mm | - | 7 W/m² | - |
| 1777632794 | 8.89° C | 69% | 1013 hPa | 0 mm | - | 5 W/m² | - |
| 1777632490 | 8.89° C | 69% | 1013 hPa | 0 mm | - | 3 W/m² | - |
| 1777632188 | 8.89° C | 70% | 1012.9 hPa | 0 mm | - | 1 W/m² | - |
| 1777631894 | 8.89° C | 67% | 1012.9 hPa | 0 mm | - | 1 W/m² | - |
| 1777631584 | 8.89° C | 68% | 1013.1 hPa | 0 mm | - | 0 W/m² | - |
| 1777631280 | 8.89° C | 69% | 1013.1 hPa | 0 mm | - | 0 W/m² | - |
| 1777630977 | 8.89° C | 70% | 1013.1 hPa | 0 mm | - | 0 W/m² | - |
| 1777630672 | 8.89° C | 68% | 1013.4 hPa | 0 mm | - | 0 W/m² | - |
| 1777630370 | 9.44° C | 66% | 1013.6 hPa | 0 mm | - | 0 W/m² | - |
| 1777630068 | 9.44° C | 66% | 1013.3 hPa | 0 mm | - | 0 W/m² | - |
| 1777629765 | 9.44° C | 66% | 1013.6 hPa | 0 mm | - | 0 W/m² | - |
| 1777629461 | 9.44° C | 65% | 1013.6 hPa | 0 mm | - | 0 W/m² | - |
| 1777629157 | 8.89° C | 65% | 1013.6 hPa | 0 mm | - | 0 W/m² | - |
| 1777628865 | 8.89° C | 69% | 1013.3 hPa | 0 mm | - | 0 W/m² | - |
| 1777628551 | 8.89° C | 67% | 1013.4 hPa | 0 mm | - | 0 W/m² | - |
| 1777628247 | 8.89° C | 70% | 1013.4 hPa | 0 mm | - | 0 W/m² | - |
| 1777627943 | 8.33° C | 71% | 1013.4 hPa | 0 mm | - | 0 W/m² | - |
* Rain latest hour (hover to see other rain measurements)
** Current wind speed in m/s (hover to see current wind gust speed)